Location: Asheville, NC
(35.6000°N, 82.5500°W)
Time: 19:22:01

KKS-1 - Pass Details

Date: 11 March 2018
Orbit: 638 x 650 km, 98.4° (Epoch: 20 March)

Event Time Altitude Azimuth Distance (km) Brightness Sun altitude
Rises 06:46:01 0° 181° (S) 2,944 ? -13.1°
Reaches altitude 10° 06:48:18 10° 188° (S) 2,040 ? -12.7°
Maximum altitude 06:52:32 44° 260° (W) 900 ? -11.8°
Drops below altitude 10° 06:56:49 10° 333° (NNW) 2,056 ? -10.9°
Sets 06:59:08 0° 340° (NNW) 2,971 ? -10.5°
